Vertical_Velocity
1 -1 -1 -0 -0 0 -0 -2 -5 -1 1 -2 -1 -2 -5 -4 -2 -1 -1 -1 0 -2 -2 -2 -1 -2 -2 -1 -2 -2 -1 -2 -3 -0 0 -0 -0 -1 0 -0 -2 -1 -0 -30
-1 0 -1 -2 2 -1 -1 0 -1 -3 0 -1 -1 -2 -4 -3 -3 -1 -0 -1 0 1 0 -1 -2 -1 -2 -2 -0 1 0 -1 -1 0 1 -2 -3 -2 0 0 3 -4 -3 -19
-0 -2 1 -1 -2 -0 0 0 -0 -1 -5 -0 -0 -0 -1 -3 -3 -1 -2 -0 -0 0 -0 1 -0 -0 2 1 -2 -2 0 -0 -1 -4 -0 -1 -4 -2 0 1 3 -2 -28 -9
-3 -2 -2 1 -2 -2 -2 -0 -1 1 1 -3 -4 1 2 1 -1 -1 -1 -1 -4 -2 -0 3 3 1 1 1 2 2 -0 -3 -1 2 -0 -1 1 3 2 -4 1 -12 -2 -14
1 -1 -1 -3 -1 -2 -1 -1 1 0 1 1 1 -3 -1 1 -1 1 -3 -3 -1 -2 -3 -2 -4 -3 -1 1 0 0 -0 -3 -2 -8 1 2 -5 0 1 0 1 -16 8 -38
-1 -0 -3 0 -2 -1 -3 -4 -1 -1 -0 0 0 2 -2 -0 2 -0 2 1 -3 -4 -1 1 0 1 -0 -1 -0 2 2 1 1 -6 0 -2 -9 1 1 3 3 9 -13 2
1 -1 -1 -1 -2 -2 2 -2 -4 -4 -2 1 1 -1 4 -1 -3 -2 0 0 3 3 1 -2 -0 -1 0 1 0 -1 -2 1 2 -5 -5 -4 -0 1 1 -1 -1 -4 -7 2
3 0 -1 -1 2 -1 -2 1 -1 -3 -3 -2 -2 1 -0 3 2 1 1 -0 0 -1 2 2 -3 -1 2 -0 1 2 2 2 -4 -0 -0 -18 -3 -0 0 3 0 0 -6 3
2 3 -1 -2 -1 0 -1 0 1 -1 -0 -3 -2 -3 -3 -1 -0 0 3 3 -1 -1 -2 2 1 -0 -0 -0 -1 -2 -0 1 -2 -1 0 -1 2 1 1 0 -0 1 -1 -1
-1 2 1 -2 -2 -1 0 -0 2 1 -0 1 1 -1 -2 -3 -1 2 -1 -0 3 2 0 -2 -1 -1 -1 0 2 -1 -0 0 -5 -0 -2 -14 6 0 1 -0 2 3 2 2
-1 1 3 -0 -3 -1 -1 -3 -1 3 2 2 1 -2 2 0 1 -2 -1 2 0 1 2 3 -2 -0 -0 -1 -1 1 2 -1 -4 2 -1 -12 1 -1 -4 1 -0 1 0 -1
0 3 0 1 -1 -3 -2 -0 -1 -4 -0 3 -2 0 2 -2 2 0 -2 -3 -3 3 1 -1 2 1 -2 1 -3 -0 -9 -1 2 -6 3 2 6 8 3 0 2 1 0 -0
-6 -1 4 2 2 -2 -4 -2 -2 -1 -1 1 -1 1 1 1 -1 -1 -1 -0 7 -3 -2 1 4 -3 -0 0 -2 2 -2 5 -9 3 1 -0 2 6 3 4 -2 1 1 -1
-2 -8 -2 2 1 0 1 -2 -3 -1 -3 -1 2 4 -2 -2 2 4 -1 2 -0 6 2 -0 -2 2 7 -1 -1 1 0 1 -4 -13 -2 -5 7 -4 -1 -0 1 2 1 -1
-1 -7 -2 -4 3 2 -2 -4 0 -1 -3 -5 1 5 2 1 1 -2 3 2 3 -0 1 4 1 -5 5 -3 2 -6 5 5 -1 -40 27 -4 1 2 3 1 2 1 -4 -2
1 -6 -6 1 -1 -1 1 -5 3 -4 2 -3 -9 -5 -0 -4 -3 4 4 1 5 5 -0 -2 -4 1 17 -2 -13 -10 2 -1 6 -30 1 -2 4 -4 2 -2 1 5 -1 -0
-5 6 -1 -7 2 7 -0 -3 -1 2 3 1 -2 -10 -5 -1 -0 -0 -3 -1 0 7 6 -9 -2 -3 20 1 -34 14 2 8 4 -2 -6 -11 13 -13 2 0 2 -3 1 1
1 -7 -4 -1 2 -6 -1 1 -2 -0 5 -1 1 3 -10 -7 -7 0 2 1 2 -2 2 -4 -2 1 5 -15 -20 8 4 4 -1 2 2 -13 -0 2 3 -1 -4 -5 -4 5
-0 -3 -4 -1 -1 -3 1 0 0 2 -4 -2 -1 -8 -6 1 0 4 -3 1 -2 -4 -1 2 3 -2 -26 -9 -7 5 10 -1 -1 2 2 5 -8 2 4 3 4 -5 0 -2
-9 -0 -4 -5 0 -0 -1 -3 -2 2 -2 0 -17 4 3 7 4 1 2 -5 -4 2 -1 4 -2 -20 -15 13 -1 -1 4 4 1 -3 -4 4 2 -5 0 2 2 -4 0 -0
-4 -6 -1 -0 -1 0 0 0 1 -1 -1 -0 -2 -1 2 3 0 2 2 0 3 -2 -2 0 1 -18 -0 5 4 2 -2 -0 4 -2 -2 0 -2 -1 -2 3 -0 1 -2 2
-2 -2 -3 -1 0 2 0 1 3 -0 2 -2 -0 2 2 2 1 5 5 0 1 1 3 -1 -9 -4 0 2 6 5 2 5 1 0 -3 -3 -1 -2 -2 1 2 4 1 3
1 -4 -3 1 1 3 3 -0 0 4 3 3 3 2 0 -2 1 6 0 2 0 -0 -3 -8 -20 11 12 11 7 6 -2 -0 1 -0 -1 -6 -3 0 -1 -2 -1 4 7 4
-2 -2 -1 -6 1 0 2 2 12 15 12 -3 -3 0 6 -5 2 4 0 8 1 -2 -8 -26 25 12 8 1 1 -0 1 -1 -0 1 -1 -1 -4 -2 3 2 -2 -2 2 5
-1 -0 -5 1 5 1 2 7 14 0 6 2 3 -5 5 4 8 4 7 1 1 -6 -11 26 -7 -3 -3 0 1 -2 -2 1 0 0 -3 -3 -1 -4 0 3 4 2 1 2
0 -5 -2 -5 -3 4 2 4 9 14 -0 0 4 -7 13 4 5 5 -1 1 -3 10 15 3 8 8 7 7 -1 -2 -8 -3 -2 7 -0 3 1 -1 -1 -3 -0 5 2 -0
-6 -5 -4 -6 -5 -8 -4 3 4 5 2 -2 2 -2 7 1 10 -8 -6 -11 24 10 6 9 18 17 -6 -4 4 8 1 3 3 1 4 0 6 5 3 1 2 -5 -1 0
Height
3117 3115 3113 3111 3110 3108 3107 3105 3103 3101 3099 3100 3097 3098 3098 3099 3101 3102 3103 3104 3105 3106 3108 3109 3110 3111 3112 3112 3113 3115 3115 3116 3116 3118 3117 3117 3117 3117 3118 3119 3120 3119 3117 3097
3118 3116 3114 3111 3109 3107 3106 3105 3104 3104 3102 3101 3100 3100 3101 3103 3102 3103 3104 3104 3106 3107 3108 3110 3110 3111 3112 3112 3113 3114 3114 3114 3115 3114 3117 3114 3112 3112 3114 3115 3115 3111 3113 3093
3120 3117 3114 3113 3110 3107 3106 3105 3105 3105 3104 3103 3103 3102 3102 3102 3104 3105 3105 3105 3106 3107 3108 3108 3109 3109 3110 3111 3111 3112 3113 3111 3110 3109 3108 3109 3107 3107 3108 3109 3108 3102 3089 3084
3121 3119 3115 3113 3111 3109 3108 3106 3105 3104 3104 3103 3104 3104 3102 3103 3103 3105 3106 3106 3107 3108 3108 3108 3108 3109 3109 3109 3109 3110 3110 3107 3106 3105 3105 3103 3100 3099 3099 3096 3095 3093 3081 3080
3121 3118 3116 3113 3112 3110 3108 3106 3105 3104 3103 3103 3104 3103 3104 3103 3103 3104 3105 3106 3106 3107 3107 3108 3107 3107 3107 3108 3108 3108 3107 3105 3102 3097 3097 3093 3087 3085 3085 3084 3084 3080 3079 3072
3120 3118 3115 3113 3110 3110 3109 3106 3104 3104 3103 3102 3103 3103 3103 3103 3103 3104 3104 3104 3105 3106 3107 3106 3106 3105 3105 3105 3105 3105 3105 3104 3102 3093 3091 3087 3078 3070 3071 3071 3071 3073 3072 3068
3118 3116 3113 3111 3109 3107 3107 3106 3105 3104 3103 3103 3102 3101 3102 3102 3102 3102 3102 3103 3103 3104 3103 3103 3103 3102 3101 3101 3101 3101 3101 3103 3103 3095 3090 3086 3070 3069 3068 3067 3066 3066 3064 3066
3114 3113 3111 3108 3106 3105 3103 3103 3103 3102 3101 3101 3100 3100 3099 3099 3099 3100 3100 3100 3100 3099 3100 3100 3099 3097 3096 3094 3093 3094 3097 3100 3102 3098 3093 3076 3067 3067 3066 3065 3064 3064 3062 3064
3107 3108 3107 3106 3104 3102 3100 3099 3099 3099 3099 3098 3098 3097 3098 3098 3097 3097 3097 3096 3096 3097 3096 3097 3095 3092 3090 3090 3089 3089 3091 3095 3099 3097 3097 3082 3068 3067 3066 3066 3064 3064 3063 3062
3103 3102 3101 3101 3100 3099 3097 3096 3095 3095 3095 3095 3094 3095 3095 3095 3094 3095 3094 3093 3093 3093 3092 3092 3093 3090 3090 3087 3085 3083 3085 3088 3090 3094 3093 3071 3067 3066 3067 3068 3071 3064 3063 3062
3097 3096 3096 3095 3095 3094 3094 3093 3092 3092 3091 3091 3090 3090 3089 3090 3091 3091 3092 3092 3089 3089 3089 3088 3088 3086 3085 3083 3082 3082 3083 3082 3081 3086 3087 3071 3066 3067 3069 3068 3064 3063 3060 3058
3090 3089 3090 3090 3090 3089 3087 3087 3087 3087 3087 3087 3085 3085 3085 3086 3085 3087 3087 3089 3088 3088 3087 3087 3085 3083 3082 3080 3080 3078 3080 3077 3076 3075 3067 3066 3065 3065 3064 3061 3059 3058 3055 3053
3087 3084 3084 3084 3083 3083 3082 3080 3080 3079 3079 3081 3080 3078 3079 3080 3080 3081 3081 3083 3084 3083 3083 3082 3082 3080 3077 3075 3072 3072 3073 3073 3068 3067 3063 3063 3061 3059 3055 3052 3049 3050 3048 3044
3081 3081 3079 3078 3078 3077 3076 3075 3074 3074 3073 3071 3071 3071 3074 3076 3076 3075 3074 3074 3074 3074 3075 3075 3073 3073 3071 3066 3068 3064 3067 3066 3063 3055 3054 3054 3052 3050 3048 3046 3044 3042 3039 3038
3072 3074 3073 3073 3072 3071 3070 3070 3070 3070 3072 3067 3068 3067 3068 3067 3067 3067 3068 3067 3066 3066 3066 3066 3065 3065 3065 3061 3056 3049 3056 3058 3055 3048 3049 3043 3040 3040 3037 3035 3034 3032 3029 3029
3066 3067 3066 3067 3067 3065 3064 3065 3065 3064 3062 3060 3059 3059 3060 3060 3060 3060 3059 3060 3060 3059 3057 3058 3057 3059 3058 3050 3041 3045 3047 3047 3045 3040 3037 3033 3029 3030 3027 3022 3022 3020 3018 3018
3059 3061 3060 3061 3060 3060 3059 3059 3060 3058 3057 3055 3051 3051 3054 3054 3055 3055 3055 3054 3054 3053 3050 3047 3050 3052 3050 3037 3035 3041 3042 3036 3036 3032 3028 3022 3022 3016 3017 3018 3015 3012 3011 3010
3054 3055 3056 3055 3055 3055 3055 3052 3052 3052 3052 3051 3049 3045 3049 3052 3051 3050 3048 3047 3047 3045 3042 3040 3040 3041 3039 3025 3032 3032 3030 3025 3022 3022 3018 3014 3010 3007 3005 3003 3003 3001 3001 3001
3048 3048 3049 3049 3048 3047 3048 3048 3047 3046 3050 3047 3043 3045 3045 3042 3043 3043 3043 3040 3037 3034 3031 3032 3031 3028 3026 3023 3022 3021 3019 3013 3011 3011 3010 3006 3003 2999 2995 2992 2991 2988 2989 2987
3041 3043 3042 3041 3042 3041 3041 3039 3040 3038 3036 3035 3034 3039 3037 3038 3037 3035 3038 3033 3032 3027 3026 3023 3019 3016 3020 3015 3011 3009 3007 3006 3004 3001 3000 2997 2994 2990 2987 2983 2980 2978 2978 2977
3033 3034 3035 3035 3036 3036 3035 3035 3034 3033 3031 3027 3029 3029 3029 3030 3030 3029 3030 3027 3025 3022 3021 3020 3013 3012 3013 3009 3005 3003 3003 3002 2999 2996 2994 2989 2983 2980 2977 2974 2971 2970 2968 2968
3027 3029 3028 3030 3030 3030 3031 3029 3029 3027 3026 3025 3025 3026 3026 3025 3025 3024 3021 3020 3020 3017 3015 3013 3008 3009 3006 3004 3002 2998 2997 2996 2993 2989 2987 2984 2979 2973 2969 2965 2962 2962 2961 2961
3021 3021 3023 3023 3023 3023 3022 3022 3023 3023 3021 3021 3021 3022 3022 3020 3021 3019 3018 3013 3013 3011 3010 3005 3003 3003 3000 2997 2997 2994 2991 2989 2986 2982 2979 2977 2974 2969 2963 2959 2957 2957 2956 2956
3017 3017 3017 3018 3015 3014 3015 3019 3021 3019 3016 3015 3016 3017 3018 3014 3013 3013 3011 3008 3007 3005 3003 2995 2996 2996 2994 2991 2989 2987 2985 2984 2982 2978 2974 2970 2967 2964 2961 2957 2955 2955 2955 2955
3014 3012 3010 3009 3010 3011 3013 3015 3015 3014 3012 3010 3009 3010 3011 3007 3006 3004 3001 3000 2997 2994 2990 2991 2987 2986 2985 2983 2981 2980 2979 2978 2976 2973 2970 2967 2963 2960 2959 2957 2955 2954 2953 2952
3008 3006 3003 3006 3008 3009 3009 3009 3009 3007 3006 3006 3005 3004 3001 2998 2996 2994 2992 2991 2988 2989 2986 2984 2982 2981 2980 2978 2975 2974 2973 2972 2970 2968 2966 2963 2960 2957 2955 2953 2952 2951 2949 2948
2998 2994 2998 3002 3003 3003 3004 3005 3004 3003 3002 3001 3001 2999 2995 2991 2988 2985 2984 2982 2983 2978 2977 2977 2975 2971 2970 2969 2967 2966 2965 2964 2962 2961 2959 2956 2954 2952 2949 2948 2947 2944 2942 2940